AXY2605 HTDA-YMML

Flight info

Callsign AXY2605
Flight time N/A
Altitude 31000
Route DUDNA1D ETMIS UT913 APGEN UG661 TABNO DCT MAROF/N0496F330 DCT NSB DCT VEMAR DCT TIGOK DCT RUPIG DCT 17S062E 17S067E DCT KADEM/N0489F350 DCT 2130S08000E 2330S08500E 25S090E 2630S09500E 30S105E/N0474F370 DCT TREES DCT MOLGA DCT VIMUS Y53 ROMPA/N0476F390 Y53 ALAXO
Aircraft A346/H-SDE2E3FGHIJ3J4J5M1RWXY/LB1D1

Departure

Time 2026-04-16 13:01
Airport Julius Nyerere International Airport (HTDA)

Arrival

Time N/A
Airport Melbourne Airport (YMML)
Time Latitude Longitude Altitude Speed Heading
2026-04-16 12:15 -6.86393 39.21255 193 ft 0 kts 315°
2026-04-16 12:48 -6.86394 39.21256 193 ft 0 kts 315°
2026-04-16 12:48 -6.86396 39.21257 193 ft 0 kts 315°
2026-04-16 12:49 -6.86397 39.21259 193 ft 0 kts 315°
2026-04-16 12:49 -6.86398 39.21260 192 ft 0 kts 315°
2026-04-16 12:52 -6.86399 39.21260 192 ft 0 kts 315°
2026-04-16 12:52 -6.86409 39.21270 192 ft 2 kts 315°
2026-04-16 12:52 -6.86420 39.21280 192 ft 2 kts 328°
2026-04-16 12:53 -6.86433 39.21286 192 ft 2 kts 354°
2026-04-16 12:53 -6.86449 39.21285 191 ft 2 kts 16°
2026-04-16 12:53 -6.86463 39.21278 191 ft 2 kts 38°
2026-04-16 12:53 -6.86468 39.21273 191 ft 1 kts 46°
2026-04-16 12:54 -6.86469 39.21272 191 ft 0 kts 46°
2026-04-16 12:54 -6.86469 39.21273 191 ft 0 kts 46°
2026-04-16 12:56 -6.86468 39.21273 191 ft 0 kts 46°
2026-04-16 12:56 -6.86468 39.21274 191 ft 0 kts 46°
2026-04-16 12:58 -6.86457 39.21285 191 ft 8 kts 46°
2026-04-16 12:58 -6.86428 39.21382 191 ft 11 kts 91°
2026-04-16 12:58 -6.86387 39.21460 190 ft 13 kts 51°
2026-04-16 12:59 -6.86330 39.21543 187 ft 15 kts 71°
2026-04-16 12:59 -6.86345 39.21657 183 ft 17 kts 128°
2026-04-16 12:59 -6.86415 39.21655 182 ft 10 kts 218°
2026-04-16 13:00 -6.86438 39.21635 182 ft 0 kts 225°
2026-04-16 13:00 -6.86511 39.21563 185 ft 44 kts 224°
2026-04-16 13:00 -6.86895 39.21187 192 ft 106 kts 224°
2026-04-16 13:01 -6.87553 39.20528 191 ft 158 kts 226°
2026-04-16 13:01 -6.88429 39.19645 294 ft 188 kts 222°
2026-04-16 13:01 -6.89357 39.18724 735 ft 186 kts 222°
2026-04-16 13:01 -6.90270 39.17813 1195 ft 187 kts 221°
2026-04-16 13:02 -6.91199 39.16893 1664 ft 188 kts 221°
2026-04-16 13:02 -6.92130 39.15922 2000 ft 200 kts 223°
2026-04-16 13:02 -6.93163 39.14831 2102 ft 228 kts 223°
2026-04-16 13:02 -6.94305 39.13614 2367 ft 251 kts 223°
2026-04-16 13:03 -6.95581 39.12292 2784 ft 268 kts 217°
2026-04-16 13:03 -6.97225 39.11422 3325 ft 271 kts 185°
2026-04-16 13:03 -6.99070 39.11577 3964 ft 272 kts 162°
2026-04-16 13:03 -7.00882 39.12118 4584 ft 272 kts 161°
2026-04-16 13:04 -7.02729 39.12652 5024 ft 279 kts 163°
2026-04-16 13:04 -7.04642 39.13131 5533 ft 283 kts 165°
2026-04-16 13:04 -7.06578 39.13565 6028 ft 286 kts 166°
2026-04-16 13:04 -7.08540 39.13972 6524 ft 289 kts 166°
2026-04-16 13:05 -7.10540 39.14372 7006 ft 292 kts 167°
2026-04-16 13:05 -7.12560 39.14766 7480 ft 296 kts 167°
2026-04-16 13:05 -7.14523 39.15146 7800 ft 299 kts 167°
2026-04-16 13:05 -7.16583 39.15542 7862 ft 300 kts 167°
2026-04-16 13:06 -7.18630 39.15934 7860 ft 299 kts 168°
2026-04-16 13:06 -7.20722 39.16165 7855 ft 301 kts 176°
2026-04-16 13:06 -7.22857 39.16134 8092 ft 308 kts 181°
2026-04-16 13:06 -7.25000 39.16022 8652 ft 307 kts 182°
2026-04-16 13:07 -7.27126 39.15903 9124 ft 309 kts 182°
2026-04-16 13:07 -7.29301 39.15783 9555 ft 312 kts 182°
2026-04-16 13:07 -7.31494 39.15664 9981 ft 315 kts 182°
2026-04-16 13:07 -7.33707 39.15546 10259 ft 323 kts 182°
2026-04-16 13:08 -7.35988 39.15424 10454 ft 334 kts 182°
2026-04-16 13:08 -7.38379 39.15298 10644 ft 346 kts 182°
2026-04-16 13:08 -7.40838 39.15169 10847 ft 356 kts 182°
2026-04-16 13:08 -7.43332 39.15038 11048 ft 367 kts 183°
2026-04-16 13:09 -7.45947 39.14901 11240 ft 378 kts 183°
2026-04-16 13:09 -7.48613 39.14790 11413 ft 388 kts 178°
2026-04-16 13:09 -7.51275 39.15340 11607 ft 396 kts 155°
2026-04-16 13:09 -7.53597 39.16851 12023 ft 397 kts 135°
2026-04-16 13:10 -7.55261 39.19037 12444 ft 397 kts 115°
2026-04-16 13:10 -7.56127 39.21680 12838 ft 397 kts 99°
2026-04-16 13:10 -7.56612 39.24419 13248 ft 400 kts 98°
2026-04-16 13:10 -7.57110 39.27187 13632 ft 404 kts 99°
2026-04-16 13:11 -7.57621 39.29957 14019 ft 407 kts 99°
2026-04-16 13:11 -7.58151 39.32768 14414 ft 409 kts 100°
2026-04-16 13:11 -7.58698 39.35629 14787 ft 412 kts 100°
2026-04-16 13:11 -7.59243 39.38470 15176 ft 414 kts 101°
2026-04-16 13:12 -7.59789 39.41304 15531 ft 416 kts 101°
2026-04-16 13:12 -7.60344 39.44178 15889 ft 419 kts 101°
2026-04-16 13:12 -7.60905 39.47075 16251 ft 421 kts 101°
2026-04-16 13:12 -7.61465 39.49951 16559 ft 423 kts 101°
2026-04-16 13:13 -7.62038 39.52889 16835 ft 428 kts 101°
2026-04-16 13:13 -7.62601 39.55828 17194 ft 429 kts 102°
2026-04-16 13:13 -7.63165 39.58763 17666 ft 426 kts 102°
2026-04-16 13:13 -7.63737 39.61676 17991 ft 428 kts 102°
2026-04-16 13:14 -7.64321 39.64667 18165 ft 433 kts 101°
2026-04-16 13:14 -7.64907 39.67650 18504 ft 434 kts 100°
2026-04-16 13:14 -7.65469 39.70600 19182 ft 424 kts 101°
2026-04-16 13:14 -7.66028 39.73490 19678 ft 421 kts 101°
2026-04-16 13:15 -7.66584 39.76367 19922 ft 423 kts 101°
2026-04-16 13:15 -7.67145 39.79277 20157 ft 426 kts 101°
2026-04-16 13:15 -7.67712 39.82215 20420 ft 428 kts 101°
2026-04-16 13:15 -7.68281 39.85165 20669 ft 430 kts 101°
2026-04-16 13:16 -7.68854 39.88132 20923 ft 431 kts 101°
2026-04-16 13:16 -7.69421 39.91082 21168 ft 433 kts 101°
2026-04-16 13:16 -7.69994 39.94055 21431 ft 434 kts 102°
2026-04-16 13:16 -7.70574 39.97069 21684 ft 435 kts 102°
2026-04-16 13:17 -7.71144 40.00033 21915 ft 437 kts 102°
2026-04-16 13:17 -7.71728 40.03066 22125 ft 439 kts 102°
2026-04-16 13:17 -7.72305 40.06063 22345 ft 441 kts 102°
2026-04-16 13:17 -7.72898 40.09138 22567 ft 443 kts 102°
2026-04-16 13:18 -7.73482 40.12175 22782 ft 445 kts 102°
2026-04-16 13:18 -7.74073 40.15251 23006 ft 447 kts 102°
2026-04-16 13:18 -7.74664 40.18327 23201 ft 449 kts 102°
2026-04-16 13:18 -7.75251 40.21386 23398 ft 451 kts 102°
2026-04-16 13:19 -7.75850 40.24504 23604 ft 453 kts 102°
2026-04-16 13:19 -7.76450 40.27638 23825 ft 455 kts 102°
2026-04-16 13:19 -7.77050 40.30769 24032 ft 457 kts 102°
2026-04-16 13:19 -7.77654 40.33926 24223 ft 459 kts 102°
2026-04-16 13:20 -7.78262 40.37096 24446 ft 461 kts 102°
2026-04-16 13:20 -7.78868 40.40262 24642 ft 463 kts 102°
2026-04-16 13:20 -7.79479 40.43459 24836 ft 465 kts 102°
2026-04-16 13:20 -7.80089 40.46656 25035 ft 466 kts 102°
2026-04-16 13:21 -7.80696 40.49839 25224 ft 468 kts 102°
2026-04-16 13:21 -7.81312 40.53069 25419 ft 470 kts 102°
2026-04-16 13:21 -7.81989 40.56307 25599 ft 471 kts 108°
2026-04-16 13:21 -7.83324 40.59306 25724 ft 469 kts 124°
2026-04-16 13:22 -7.85384 40.61844 25920 ft 467 kts 138°
2026-04-16 13:22 -7.87960 40.63800 26093 ft 467 kts 148°
2026-04-16 13:22 -7.90720 40.65559 26285 ft 469 kts 148°
2026-04-16 13:22 -7.93496 40.67343 26456 ft 470 kts 148°
2026-04-16 13:23 -7.96265 40.69133 26632 ft 472 kts 148°
2026-04-16 13:23 -7.99045 40.70938 26799 ft 474 kts 148°
2026-04-16 13:23 -8.01822 40.72748 26978 ft 475 kts 148°
2026-04-16 13:23 -8.04603 40.74562 27155 ft 477 kts 148°
2026-04-16 13:24 -8.07371 40.76369 27330 ft 478 kts 148°
2026-04-16 13:24 -8.10179 40.78204 27497 ft 479 kts 148°
2026-04-16 13:24 -8.13039 40.80071 27692 ft 480 kts 148°
2026-04-16 13:24 -8.15813 40.81960 27859 ft 482 kts 144°
2026-04-16 13:25 -8.18452 40.84095 28036 ft 484 kts 140°